Location: New Plymouth
(39.0670°S, 174.0830°E)
Time: 18:17:17
(UTC+13:00)

CZ-4C R/B - Pass Details

Date: 24 January 2019
Orbit: 671 x 1331 km, 63.4° (Epoch: 20 February)

Event Time Altitude Azimuth Distance (km) Brightness Sun altitude
Rises 22:01:34 0° 206° (SSW) 3,661 6.8 -13.2°
Reaches altitude 10° 22:05:52 10° 179° (S) 2,549 5.2 -13.8°
Maximum altitude 22:08:34 13° 151° (SSE) 2,225 4.5 -14.2°
Drops below altitude 10° 22:11:07 10° 123° (ESE) 2,361 4.4 -14.6°
Enters shadow 22:13:13 - 105° (ESE) 2,761 4.6 -14.9°
